{"data":{"norad_id":66457,"epoch":"2026-05-24T22:15:27.428256Z","epoch_age_seconds":82048,"freshness":"FRESH","line1":"1 66457U 25262B   26144.92740079  .00009562  00000+0  35658-3 0  9991","line2":"2 66457  43.0000 225.8264 0000964 287.7533  72.3213 15.27576517 30568","mean_motion":15.27576517,"eccentricity":9.64e-5,"inclination_deg":43,"raan_deg":225.8264,"arg_perigee_deg":287.7533,"mean_anomaly_deg":72.3213,"bstar":0.00035658,"rev_number":3056,"period_min":94.266963649586,"perigee_km":482.39810606942,"apogee_km":483.72094475952,"semimajor_km":6861.1965254145,"source":"CELESTRAK","updated_at":"2026-05-25T13:38:21.213870Z"}}